Change the Weather History Date:

Sunday, February 23, 2014

  Actual Average Record
Temperature  
Mean Temperature 55 °F 46 °F  
Max Temperature 73 °F 58 °F 77 °F (2012)
Min Temperature 37 °F 34 °F 21 °F (1997)
Degree Days  
Heating Degree Days 10 19  
Month to date heating degree days 473 489  
Since 1 July heating degree days 2707 2531  
Growing Degree Days 5 (Base 50)    
Moisture  
Dew Point 34 °F    
Average Humidity 54    
Maximum Humidity 85    
Minimum Humidity 23    
Precipitation  
Precipitation 0.00 in 0.19 in 0.35 in (2013)
Month to date precipitation 4.24 3.88  
Year to date precipitation 7.53 8.70  
Snow  
Snow 0.00 in - - ()
Month to date snowfall 0.0  
Since 1 July snowfall T  
Snow Depth 0.00 in    
Sea Level Pressure  
Sea Level Pressure 30.00 in    
Wind  
Wind Speed 1 mph (SW)    
Max Wind Speed 10 mph    
Max Gust Speed 15 mph    
Visibility 10 miles    
Events      
T = Trace of Precipitation, MM = Missing Value Source: NWS Daily Summary

Daily Weather History Graph

Daily Weather History Graph

Search for Another Location

Airport or City:

Trip Planner

Search our weather history database for the weather conditions in past years. The results will help you decide how hot, cold, wet, or windy it might be!

Date:

Astronomy

Feb. 23, 2014 Rise Set
Actual Time 7:16 AM EST 6:31 PM EST
Civil Twilight 6:51 AM EST 6:56 PM EST
Nautical Twilight 6:22 AM EST 7:26 PM EST
Astronomical Twilight 5:53 AM EST 7:55 PM EST
Moon 2:06 AM EST (2/23) 12:41 PM EST (2/23)
Length of Visible Light 12h 05m
Length of Day
11h 14m
Last Quarter, 39% of the Moon is Illuminated
Feb 23
Last Quarter
Mar 1
New
Mar 8
First Quarter
Mar 16
Full
Mar 23
Last Quarter

Hourly Weather History & Observations

Time (EST) Temp. Dew Point Humidity Pressure Visibility Wind Dir Wind Speed Gust Speed Precip Events Conditions
12:53 AM 39.9 °F 30.0 °F 68% 30.05 in 10.0 mi Calm Calm - N/A   Clear
1:53 AM 37.9 °F 30.0 °F 73% 30.05 in 10.0 mi Calm Calm - N/A   Clear
2:53 AM 37.0 °F 32.0 °F 82% 30.05 in 10.0 mi Calm Calm - N/A   Scattered Clouds
3:53 AM 39.9 °F 33.1 °F 77% 30.04 in 10.0 mi Calm Calm - N/A   Overcast
4:53 AM 41.0 °F 34.0 °F 76% 30.04 in 10.0 mi Calm Calm - N/A   Overcast
5:53 AM 39.9 °F 35.1 °F 83% 30.06 in 10.0 mi Calm Calm - N/A   Overcast
6:53 AM 39.0 °F 34.0 °F 82% 30.07 in 10.0 mi Calm Calm - N/A   Mostly Cloudy
7:53 AM 37.9 °F 34.0 °F 86% 30.07 in 10.0 mi Calm Calm - N/A   Clear
8:53 AM 42.1 °F 36.0 °F 79% 30.06 in 10.0 mi Calm Calm - N/A   Clear
9:53 AM 50.0 °F 35.1 °F 57% 30.06 in 10.0 mi South 3.5 mph - N/A   Clear
10:53 AM 57.9 °F 35.1 °F 42% 30.05 in 10.0 mi Calm Calm - N/A   Clear
11:53 AM 63.0 °F 33.1 °F 33% 30.04 in 10.0 mi Calm Calm - N/A   Clear
12:53 PM 66.0 °F 34.0 °F 30% 30.01 in 10.0 mi South 6.9 mph - N/A   Clear
1:53 PM 66.9 °F 30.9 °F 26% 29.96 in 10.0 mi Calm Calm - N/A   Clear
2:53 PM 69.1 °F 30.9 °F 24% 29.94 in 10.0 mi WSW 3.5 mph - N/A   Clear
3:53 PM 72.0 °F 33.1 °F 24% 29.91 in 10.0 mi Calm Calm - N/A   Clear
4:53 PM 72.0 °F 34.0 °F 25% 29.90 in 10.0 mi West 9.2 mph - N/A   Clear
5:53 PM 69.1 °F 35.1 °F 29% 29.91 in 10.0 mi WNW 6.9 mph - N/A   Clear
6:53 PM 62.1 °F 35.1 °F 37% 29.93 in 10.0 mi Calm Calm - N/A   Clear
7:53 PM 55.0 °F 39.0 °F 55% 29.94 in 10.0 mi Calm Calm - N/A   Clear
8:53 PM 52.0 °F 39.0 °F 61% 29.94 in 10.0 mi Calm Calm - N/A   Clear
9:53 PM 50.0 °F 37.9 °F 63% 29.96 in 10.0 mi Calm Calm - N/A   Clear
10:53 PM 46.9 °F 37.9 °F 71% 29.97 in 10.0 mi Calm Calm - N/A   Clear
11:53 PM 43.0 °F 37.9 °F 82% 29.98 in 10.0 mi Calm Calm - N/A   Clear